Location: Azul
(36.7830°S, 59.8500°W)
Time: 02:00:39
(UTC-03:00)

HuskySat-1 - Pass Details

Date: 23 October 2021
Orbit: 443 x 456 km, 51.6° (Epoch: 04 December)

Event Time Altitude Azimuth Distance (km) Brightness Sun altitude
Rises 05:01:50 0° 227° (SW) 2,495 ? -12.6°
Reaches altitude 10° 05:04:02 10° 223° (SW) 1,612 ? -12.2°
Maximum altitude 05:07:37 59° 142° (SE) 532 ? -11.5°
Drops below altitude 10° 05:11:09 10° 61° (ENE) 1,585 ? -10.9°
Sets 05:13:18 0° 57° (ENE) 2,448 ? -10.5°
